sat.trackr.live / text

‹ back to catalog

LEMUR-2-MARACHE-FRAN

NORAD 63262 · 2025-052BE

PAYLOAD ACTIVE UNKNOWN

§ Identity

Operator
Country
US
Launch date
2025-03-15
Launch site
AFWTR
Launch vehicle
Mass (kg)
RCS (m²)

Purposes: earth_obs

External: N2YO · Heavens-Above · Gunter

§ Orbital elements

Epoch: 2026-05-24T23:41:14.665056Z

Period
96.01 min
Inclination
97.6924°
Eccentricity
0.0006491
Mean motion
14.99789399 rev/d
Perigee alt
563.0 km
Apogee alt
572.1 km
Semi-major
6,945.7 km
B*
4.6694e-4
RAAN
38.8818°
Arg perigee
89.8282°
Mean anomaly
270.3685°
Rev number
6,528

§ Raw data

LEMUR-2-MARACHE-FRAN1 63262U 25052BE  26144.98697529  .00005720  00000+0  46694-3 0  99902 63262  97.6924  38.8818 0006491  89.8282 270.3685 14.99789399 65281

JSON: /api/v1/satellites/63262 · /tle

For live sub-satellite position, see the globe view (requires WebGL).

§ Visibility from observer

Set your observer location to see the next 7 days of passes ≥ 10°. The values pass through the URL so the page stays shareable.

No JS? Fill the form by hand. The geolocation button needs JavaScript.